Location: Newark
(41.0000°N, 28.9500°W)
Time: 01:13:38
(UTC+00:00)

N. Korean satellite - Pass Details

Date: 03 February 2020
Orbit: 456 x 505 km, 97.2° (Epoch: 27 February)

Event Time Altitude Azimuth Distance (km) Brightness Sun altitude
Rises 06:36:13 0° 35° (NE) 2,578 10.7 -28.3°
Reaches altitude 10° 06:39:30 10° 68° (ENE) 1,700 10.2 -27.7°
Maximum altitude 06:40:57 12° 91° (E) 1,580 10.1 -27.4°
Drops below altitude 10° 06:42:25 10° 115° (ESE) 1,703 10.1 -27.2°
Sets 06:45:41 0° 147° (SSE) 2,586 10.7 -26.5°
